TIME,DELAY(SENSOR),PRES,OXYGEN,RAWTEMP,T(OPTODE),TCPHASE,FLUOR,BETA(BETA700),BETA(BETA412),BETA(BETA440),CDOM,C(CSC),ED(ED412.20),ED(ED444.00),ED(ED489.60),ED(ED554.30),LU(LU412.10),LU(LU443.90),LU(LU489.70),LU(LU554.70),COMP,TILTX,TILTY,CHECK
1344482353,5810,898.1699829101562000,35.2116203308105500,560.1566772460938000,4.4810371398925780,56.2491989135742200,55,100,100,78,82,15564,0,0,0,0,2147123858,2147777782,2147573056,2147569627,292,3,13,64191
1344485949,5808,979.8400268554688000,38.4092903137207000,569.4799194335938000,4.1917228698730470,55.8517417907714840,55,100,100,78,82,15520,0,0,0,0,2147122560,2147777545,2147572754,2147567990,543,3,13,24377
1344489549,5809,994.5399780273438000,38.5549888610839840,570.7750244140625000,4.1514739990234375,55.8449897766113300,55,98,100,78,83,15526,0,0,0,0,2147125869,2147779236,2147577974,2147568557,655,3,13,16561
1344493149,5810,1005.8499755859375000,38.1559410095214840,569.9622192382812000,4.1767368316650390,55.8899192810058600,55,98,101,77,84,15523,0,0,0,0,2147123492,2147776566,2147575350,2147569846,11,3,13,5504
1344496749,5811,1008.4899902343750000,37.6244697570800800,569.8734741210938000,4.1794910430908200,55.9711303710937500,55,98,100,79,83,15521,0,0,0,0,2147123145,2147777417,2147574244,2147570450,3077,3,13,20221
1344500349,5810,1014.2600097656250000,37.6395988464355500,569.8391113281250000,4.1805610656738280,55.9694709777832000,55,99,101,78,83,15519,0,0,0,0,2147121481,2147776237,2147573138,2147568566,53,3,13,1789
1344503949,5809,1014.4400024414062000,37.2735900878906250,569.8660278320312000,4.1797261238098145,56.0308189392089840,54,98,101,78,84,15519,0,0,0,0,2147125037,2147780672,2147576448,2147568566,434,3,13,13216
1344507549,5812,1016.7999877929688000,37.4117088317871100,570.2476806640625000,4.1678619384765625,56.0130195617675800,54,99,102,77,82,15518,0,0,0,0,2147122971,2147777252,2147571026,2147570880,69,3,12,10098
1344511149,5811,1015.6400146484375000,37.0310287475585940,570.4074707031250000,4.1628971099853520,56.0732116699218750,56,99,101,78,83,15516,0,0,0,0,2147126811,2147777490,2147575149,2147570779,349,3,13,36664
1344514749,5809,1016.9600219726562000,37.0564918518066400,570.7216186523438000,4.1531329154968260,56.0717697143554700,55,99,100,78,83,15514,0,0,0,0,2147125760,2147778130,2147577298,2147570020,3349,3,13,8052
1344518349,5812,1014.5900268554688000,38.4767303466796900,571.2006835937500000,4.1382431983947750,55.8550415039062500,55,98,101,79,82,15515,0,0,0,0,2147122569,2147771090,2147577810,2147566034,3530,3,13,28943
1344521949,5811,1018.5300292968750000,37.7877082824707000,571.3057861328125000,4.1349749565124510,55.9595489501953100,56,104,101,78,82,15516,0,0,0,0,2147125961,2147775469,2147571904,2147570331,225,3,13,58404
1344525549,5809,1019.4500122070312000,37.8286094665527340,570.8203125000000000,4.1500678062438965,55.9517211914062500,54,97,101,78,83,15517,0,0,0,0,2147125622,2147774829,2147578605,2147571145,152,3,13,1441
1344529149,5808,1019.9699707031250000,37.6096305847168000,570.8417968750000000,4.1493988037109375,55.9843292236328100,55,100,102,78,83,15517,0,0,0,0,2147123520,2147780306,2147577865,2147573074,122,3,12,22489
1344532749,5806,1015.7399902343750000,38.6535110473632800,571.9180297851562000,4.1159420013427730,55.8353805541992200,56,100,101,78,83,15513,0,0,0,0,2147124690,2147781019,2147575734,2147570249,132,3,13,63967
1344536349,5810,1016.8900146484375000,38.7274818420410160,571.7056884765625000,4.1225409507751465,55.8211212158203100,55,98,99,79,83,15508,0,0,0,0,2147123547,2147774674,2147574372,2147572525,3547,3,13,55753
1344539949,5809,1018.9099731445312000,39.1303291320800800,571.9238281250000000,4.1157608032226560,55.7625503540039060,56,98,102,79,83,15512,0,0,0,0,2147124772,2147778212,2147577462,2147567972,3578,3,13,25745
1344543549,5809,1021.7199707031250000,39.0068016052246100,571.9436035156250000,4.1151471138000490,55.7879714965820300,55,99,100,78,83,15513,0,0,0,0,2147122596,2147773714,2147578404,2147570057,405,3,13,21038
1344547149,5808,1016.8300170898438000,39.4573097229003900,571.3098144531250000,4.1348500251770020,55.7093811035156250,55,100,102,77,83,15513,0,0,0,0,2147125833,2147774454,2147578459,2147571291,152,3,13,24771
1344550749,5811,1021.7100219726562000,37.4794006347656250,571.3195800781250000,4.1345458030700680,56.0121612548828100,55,101,100,79,84,15512,0,0,0,0,2147123648,2147777270,2147575826,2147568886,57,3,13,53814
1344554349,5809,1027.0200195312500000,37.2997703552246100,571.0322875976562000,4.1434760093688965,56.0349502563476560,55,98,104,79,83,15510,0,0,0,0,2147122697,2147772736,2147575808,2147567030,326,3,13,40585
1344557949,5807,1029.7399902343750000,37.6981506347656250,570.6483154296875000,4.1554150581359860,55.9699096679687500,55,99,101,79,83,15513,0,0,0,0,2147123501,2147773138,2147573613,2147568283,378,3,13,59991
1344561549,5810,1025.5699462890625000,37.5941581726074200,571.3375854492188000,4.1339859962463380,55.9970092773437500,55,97,100,78,83,15512,0,0,0,0,2147126509,2147773869,2147575158,2147570587,116,3,13,53170
1344565149,5807,1026.5699462890625000,36.6837615966796900,571.3328247070312000,4.1341361999511720,56.1317405700683600,54,99,101,78,83,15504,0,0,0,0,2147121865,2147775881,2147575862,2147572013,154,3,13,55242
1344568749,5809,1017.4500122070312000,38.5928192138671900,571.8615722656250000,4.1176948547363280,55.8492012023925800,54,99,100,78,83,15506,0,0,0,0,2147121910,2147774820,2147575890,2147568566,2196,3,13,42819
1344572349,5810,1019.2800292968750000,39.0376701354980500,571.9033813476562000,4.1163959503173830,55.7793807983398440,55,99,102,78,82,15552,0,0,0,0,2147121417,2147778112,2147576256,2147568960,78,3,12,52137
1344575949,5809,1013.5300292968750000,39.9239807128906250,572.6201782226562000,4.0941071510314940,55.6532592773437500,54,100,101,78,84,15554,0,0,0,0,2147122852,2147776475,2147578267,2147569920,294,3,13,30616
1344579549,5809,1016.2299804687500000,40.3563690185546900,572.7387084960938000,4.0904240608215330,55.5914611816406250,55,97,101,78,83,15553,0,0,0,0,2147123254,2147771958,2147574957,2147569334,167,3,13,9533
1344583149,5812,1018.9299926757812000,41.3018188476562500,572.9556274414062000,4.0836768150329590,55.4564704895019500,55,98,102,77,82,15554,0,0,0,0,2147125586,2147776630,2147582299,2147567232,232,3,13,11667
1344586749,5810,1021.3400268554688000,41.2529716491699200,572.6033935546875000,4.0946311950683590,55.4590988159179700,54,100,101,78,83,15550,0,0,0,0,2147124617,2147772708,2147576822,2147567122,453,3,13,41288
1344590349,5808,1020.9400024414062000,39.5652198791503900,572.1765136718750000,4.1079058647155760,55.7037200927734400,54,99,102,77,81,14869,0,0,0,0,2147124205,2147776146,2147578852,2147568658,108,3,13,11229
1344593949,5809,1024.4599609375000000,41.4550704956054700,572.2531127929688000,4.1055240631103520,55.4290695190429700,54,98,101,78,83,15031,0,0,0,0,2147125485,2147777517,2147575570,2147570788,902,3,13,53997
1344597549,5806,1025.5100097656250000,40.5487098693847660,572.3129882812500000,4.1036610603332520,55.5570793151855500,54,100,100,78,83,15224,0,0,0,0,2147123190,2147774976,2147576905,2147570176,2949,3,13,31205
1344601149,5807,1031.1099853515625000,39.5439186096191400,571.7686157226562000,4.1205859184265140,55.7054710388183600,55,99,101,79,83,14120,0,0,0,0,2147126509,2147773979,2147576128,2147572196,3514,3,13,51608
1344604749,5811,1033.4499511718750000,38.8963088989257800,571.2227783203125000,4.1375560760498050,55.7916717529296900,55,98,102,78,83,15535,0,0,0,0,2147123291,2147777142,2147575488,2147571337,43,3,13,18971
1344608349,5809,1025.9599609375000000,37.6339912414550800,571.5366210937500000,4.1277999877929690,55.9857482910156250,55,99,102,79,84,15536,0,0,0,0,2147120841,2147770578,2147576548,2147574034,575,3,13,13034
1344611949,5809,1025.8299560546875000,38.6244392395019500,571.7680053710938000,4.1206049919128420,55.8379096984863300,55,100,100,78,83,15542,0,0,0,0,2147123136,2147776402,2147575250,2147569142,282,3,13,50058
1344615549,5810,1028.3900146484375000,38.5505981445312500,571.8419189453125000,4.1183109283447270,55.8568305969238300,55,97,101,77,82,15537,0,0,0,0,2147123081,2147772708,2147569371,2147569910,19,3,13,10658
1344619149,5810,1026.3499755859375000,37.9950103759765600,571.7888793945312000,4.1199569702148440,55.9326210021972660,55,98,100,78,83,15539,0,0,0,0,2147124800,2147775734,2147573165,2147571190,3382,3,13,55051
1344622749,5808,1026.8800048828125000,38.3153305053710940,571.8668823242188000,4.1175308227539060,55.8886489868164060,56,98,100,78,83,15539,0,0,0,0,2147121142,2147776950,2147575853,2147570733,3586,3,13,11664
1344626349,5812,1028.8399658203125000,38.2890205383300800,572.0010986328125000,4.1133589744567870,55.8950805664062500,54,98,100,78,83,15539,0,0,0,0,2147126966,2147773577,2147574418,2147572388,142,3,13,20580
1344626755,5810,1028.2700195312500000,38.1071510314941400,571.9445800781250000,4.1151142120361330,55.9178581237793000,55,97,101,79,82,15536,0,0,0,0,2147124132,2147774628,2147577892,2147570038,127,3,13,43763
